Location: Invercargill
(46.4000°S, 168.3500°E)
Time: 18:54:14
(UTC+12:00)

CZ-2C R/B - Pass Details

Date: 14 May 2021
Orbit: 785 x 869 km, 98.2° (Epoch: 14 June)

Event Time Altitude Azimuth Distance (km) Brightness Sun altitude
Rises 18:00:34 0° 34° (NNE) 3,456 5.7 -6.4°
Reaches altitude 10° 18:03:01 10° 39° (NE) 2,526 5.0 -6.8°
Maximum altitude 18:08:24 48° 111° (ESE) 1,137 3.0 -7.7°
Drops below altitude 10° 18:13:47 10° 183° (S) 2,530 5.0 -8.6°
Sets 18:16:14 0° 188° (S) 3,464 5.8 -9.0°
